CZ-6A DEB, 61497

Orbit data source: Space-Track

CZ-6A DEB, 61497 is space debris in LEO originally from a launch on Tue, 06 Aug 2024 UTC launched from the Taiyaun Space Center, China (TSC). Debris objects in space refer to the collection of defunct objects orbiting the Earth. Examples of debris include non-operational satellites, rocket bodies, and fragments generated from explosions, collisions, or faulty payload assembly.

Loading next visibility...
Identifier
61497, 2024-140ABF
Orbit
LEO
Country
Flag of CNCN / PRC
Related business
Manufacturer
SAST
Mission
Spacecraft
Bus & Motor
Unknown
Mass
Unknown
Launch date (UTC)
2024-08-06 (2 years ago)
Launch vehicle
Unknown
Launch site
Taiyaun Space Center, China (TSC)
Object type
Payload
Rocket body
Debris
Shape & HBR
Unknown shape, 0.1 m
Radar Cross Section
Medium (>0.1 m² and <1 m²)

Expand to show TLE details & history
Last TLE update: 15 hours ago

TLE from 15 hours ago
0 CZ-6A DEB
1 61497U 24140ABF 26171.23289270  .00002304  00000-0  40067-3 0  9997
2 61497  89.0020 269.2637 0126112 241.5355 117.3108 14.62689264 97433
Epoch: 2026-06-20T05:35Z
TLE epoch observation values (Epoch: 2026-06-20T05:35:21.929Z)
Latitude
-0.00005°
Longitude
-83.02813°
Altitude
729.372 km
Speed
7.468 km/s
True Right ascension
17h 57m 03s
True Declination
0° 00' 00"
Sunlit
Object was in full shadow at epoch
Visualization orbit readout
Latitude
Unknown
Longitude
Unknown
Altitude
Unknown
Speed
Unknown
Apparent Right ascension
Unknown
Apparent Declination
Unknown
Sunlit
N/A
Visualization observer readout
Local Sidereal Time
07:19:13
Azimuth
Unknown
Elevation
Unknown
Doppler factor
Unknown
Orbital elements
Apogee altitude
770.423 km
Perigee altitude
592.364 km
Semi-major axis
7,059.53 km
Eccentricity
0.01261
Inclination
89.002°
RAAN
269.2637°
Arg. of periapsis
241.5355°
True anomaly
118.58552°
Mean anomaly
117.3108°
Eccentric anomaly
117.94909°
Mean motion
3.65914 °/min
Orbital period
98.38 mins
BSTAR
0.00040067
Loading maneuver chart data...
Computing Atmospheric mass density...
Loading historical data...
Loading historical data...
Loading historical data...
Loading historical data...
Loading historical data...
Loading historical data...
Loading historical data...

Documentation

Showing up to 5 results
|